QPF
0.11 0.22 0.22 0.33 0.40 0.49 0.49 0.38 0.32 0.29 0.25 0.20 0.16 0.13 0.09 0.07 0.05 0.04 0.02 0.01 0.00 0.00 0.00 0.00 0.00 0.00 0.00 0.00 0.00 0.00 0.00 0.00 0.00 0.00 0.00 0.00 0.01 0.01 0.01 0.01 0.01 0.01 0.01
0.09 0.18 0.21 0.28 0.35 0.38 0.40 0.34 0.29 0.25 0.20 0.17 0.15 0.13 0.11 0.08 0.06 0.04 0.02 0.00 0.00 0.00 0.00 0.00 0.00 0.00 0.00 0.00 0.00 0.00 0.00 0.00 0.00 0.00 0.00 0.00 0.00 0.00 0.00 0.00 0.00 0.01 0.01
0.05 0.08 0.13 0.20 0.24 0.24 0.26 0.28 0.29 0.26 0.19 0.17 0.16 0.12 0.09 0.07 0.05 0.02 0.01 0.00 0.00 0.00 0.00 0.00 0.00 0.00 0.00 0.00 0.00 0.00 0.00 0.00 0.00 0.00 0.00 0.00 0.00 0.00 0.00 0.00 0.00 0.00 0.00
0.02 0.05 0.12 0.15 0.21 0.20 0.17 0.21 0.27 0.26 0.22 0.19 0.13 0.08 0.05 0.04 0.03 0.01 0.01 0.00 0.00 0.00 0.00 0.00 0.00 0.00 0.00 0.00 0.00 0.00 0.00 0.00 0.00 0.00 0.00 0.00 0.00 0.00 0.00 0.00 0.00 0.00 0.00
0.01 0.02 0.07 0.11 0.13 0.16 0.15 0.16 0.19 0.20 0.18 0.17 0.14 0.11 0.07 0.05 0.03 0.01 0.01 0.00 0.00 0.00 0.00 0.00 0.00 0.00 0.00 0.00 0.00 0.00 0.00 0.00 0.00 0.00 0.00 0.00 0.00 0.00 0.00 0.00 0.00 0.00 0.00
0.01 0.03 0.04 0.06 0.08 0.12 0.14 0.15 0.16 0.15 0.14 0.16 0.15 0.11 0.07 0.05 0.03 0.01 0.00 0.00 0.00 0.00 0.00 0.00 0.00 0.00 0.00 0.00 0.00 0.00 0.00 0.00 0.00 0.00 0.00 0.00 0.00 0.00 0.00 0.00 0.00 0.00 0.00
0.02 0.04 0.05 0.06 0.05 0.09 0.11 0.11 0.13 0.13 0.14 0.14 0.11 0.08 0.06 0.05 0.03 0.01 0.00 0.00 0.00 0.00 0.00 0.00 0.00 0.00 0.00 0.00 0.00 0.00 0.00 0.00 0.00 0.00 0.00 0.00 0.00 0.00 0.00 0.00 0.00 0.00 0.00
0.01 0.02 0.04 0.05 0.04 0.06 0.06 0.07 0.09 0.10 0.09 0.08 0.07 0.06 0.05 0.04 0.02 0.01 0.00 0.00 0.00 0.00 0.00 0.00 0.00 0.00 0.00 0.00 0.00 0.00 0.00 0.00 0.00 0.00 0.00 0.00 0.00 0.00 0.00 0.00 0.00 0.00 0.00
0.00 0.02 0.03 0.03 0.04 0.05 0.05 0.06 0.07 0.08 0.07 0.06 0.06 0.06 0.04 0.03 0.01 0.01 0.01 0.00 0.00 0.00 0.00 0.00 0.00 0.00 0.00 0.00 0.00 0.00 0.00 0.00 0.00 0.00 0.00 0.00 0.00 0.00 0.00 0.00 0.00 0.00 0.00
0.00 0.01 0.02 0.03 0.03 0.03 0.04 0.06 0.06 0.06 0.08 0.07 0.06 0.04 0.03 0.03 0.02 0.01 0.01 0.01 0.00 0.00 0.00 0.00 0.00 0.00 0.00 0.00 0.00 0.00 0.00 0.00 0.00 0.00 0.00 0.00 0.00 0.00 0.00 0.00 0.00 0.00 0.00
0.01 0.00 0.01 0.02 0.01 0.02 0.02 0.04 0.05 0.06 0.07 0.06 0.05 0.04 0.03 0.03 0.02 0.02 0.01 0.01 0.00 0.00 0.00 0.00 0.00 0.00 0.00 0.00 0.00 0.00 0.00 0.00 0.00 0.00 0.00 0.00 0.00 0.00 0.00 0.00 0.00 0.00 0.00
0.01 0.01 0.01 0.01 0.01 0.01 0.02 0.04 0.04 0.04 0.04 0.05 0.05 0.03 0.03 0.04 0.03 0.02 0.02 0.02 0.01 0.01 0.01 0.00 0.00 0.00 0.00 0.00 0.00 0.00 0.00 0.00 0.00 0.00 0.00 0.00 0.00 0.00 0.00 0.00 0.00 0.00 0.00
0.01 0.01 0.01 0.01 0.01 0.02 0.03 0.04 0.06 0.06 0.03 0.04 0.04 0.05 0.05 0.04 0.04 0.03 0.02 0.02 0.02 0.01 0.01 0.01 0.01 0.00 0.00 0.00 0.00 0.00 0.00 0.00 0.00 0.00 0.00 0.00 0.00 0.00 0.00 0.00 0.00 0.00 0.00
0.01 0.02 0.02 0.01 0.01 0.01 0.03 0.04 0.05 0.05 0.04 0.05 0.05 0.05 0.05 0.05 0.04 0.04 0.04 0.04 0.03 0.02 0.02 0.01 0.01 0.01 0.01 0.01 0.01 0.01 0.01 0.00 0.00 0.00 0.00 0.00 0.00 0.00 0.00 0.00 0.00 0.00 0.00
0.01 0.01 0.02 0.02 0.02 0.03 0.04 0.05 0.07 0.07 0.06 0.07 0.06 0.05 0.05 0.05 0.04 0.04 0.06 0.08 0.08 0.08 0.07 0.05 0.05 0.04 0.04 0.03 0.03 0.03 0.02 0.02 0.02 0.01 0.01 0.01 0.01 0.01 0.01 0.01 0.01 0.01 0.01
0.03 0.02 0.01 0.02 0.03 0.04 0.06 0.05 0.07 0.09 0.11 0.11 0.10 0.09 0.09 0.06 0.05 0.06 0.08 0.09 0.12 0.15 0.17 0.16 0.13 0.12 0.10 0.08 0.08 0.07 0.05 0.04 0.04 0.03 0.03 0.02 0.02 0.02 0.02 0.02 0.02 0.02 0.02
0.04 0.04 0.03 0.04 0.05 0.07 0.06 0.06 0.07 0.10 0.14 0.15 0.15 0.15 0.12 0.09 0.10 0.13 0.14 0.14 0.14 0.15 0.16 0.15 0.13 0.12 0.12 0.12 0.10 0.09 0.07 0.06 0.05 0.04 0.04 0.03 0.03 0.03 0.02 0.02 0.02 0.03 0.03
0.05 0.06 0.06 0.06 0.06 0.06 0.06 0.06 0.09 0.11 0.12 0.13 0.15 0.15 0.13 0.11 0.12 0.13 0.11 0.08 0.06 0.07 0.07 0.07 0.07 0.07 0.07 0.08 0.07 0.06 0.06 0.05 0.04 0.04 0.04 0.03 0.03 0.02 0.02 0.02 0.02 0.02 0.02
0.06 0.06 0.07 0.08 0.08 0.08 0.09 0.09 0.10 0.11 0.11 0.11 0.12 0.13 0.11 0.10 0.10 0.09 0.08 0.08 0.08 0.07 0.06 0.05 0.06 0.06 0.07 0.07 0.07 0.07 0.06 0.06 0.05 0.04 0.04 0.03 0.03 0.02 0.02 0.02 0.01 0.01 0.01
0.06 0.06 0.06 0.06 0.07 0.10 0.11 0.11 0.11 0.11 0.11 0.11 0.11 0.11 0.09 0.08 0.08 0.07 0.06 0.08 0.09 0.09 0.08 0.08 0.07 0.05 0.05 0.05 0.05 0.05 0.05 0.05 0.05 0.05 0.05 0.05 0.04 0.03 0.02 0.01 0.01 0.01 0.01
0.07 0.06 0.05 0.06 0.07 0.08 0.08 0.08 0.08 0.07 0.06 0.05 0.04 0.03 0.03 0.03 0.03 0.03 0.04 0.04 0.04 0.04 0.05 0.06 0.07 0.06 0.06 0.06 0.06 0.05 0.05 0.04 0.03 0.03 0.03 0.03 0.03 0.02 0.01 0.01 0.01 0.01 0.00
0.06 0.06 0.04 0.04 0.05 0.05 0.05 0.05 0.04 0.02 0.02 0.01 0.01 0.01 0.01 0.01 0.01 0.01 0.02 0.02 0.02 0.03 0.04 0.05 0.05 0.06 0.06 0.05 0.05 0.05 0.04 0.04 0.03 0.02 0.02 0.01 0.01 0.01 0.01 0.01 0.01 0.00 0.00
0.07 0.05 0.03 0.03 0.02 0.03 0.02 0.03 0.03 0.02 0.02 0.01 0.01 0.01 0.01 0.01 0.01 0.01 0.01 0.01 0.01 0.01 0.02 0.02 0.02 0.03 0.04 0.04 0.03 0.03 0.02 0.02 0.02 0.02 0.02 0.02 0.01 0.01 0.01 0.01 0.00 0.00 0.00
0.06 0.03 0.02 0.01 0.01 0.01 0.01 0.01 0.01 0.01 0.01 0.01 0.01 0.01 0.01 0.00 0.00 0.00 0.00 0.00 0.00 0.00 0.00 0.01 0.01 0.01 0.01 0.01 0.01 0.01 0.02 0.02 0.03 0.03 0.02 0.02 0.02 0.01 0.01 0.01 0.00 0.00 0.00
0.02 0.02 0.01 0.01 0.00 0.00 0.00 0.00 0.00 0.00 0.00 0.00 0.00 0.00 0.00 0.00 0.00 0.00 0.00 0.00 0.00 0.00 0.00 0.00 0.00 0.00 0.00 0.00 0.00 0.00 0.00 0.00 0.00 0.01 0.01 0.01 0.01 0.01 0.00 0.00 0.00 0.00 0.00
0.02 0.02 0.01 0.01 0.00 0.00 0.00 0.00 0.00 0.00 0.00 0.00 0.00 0.00 0.00 0.00 0.00 0.00 0.00 0.00 0.00 0.00 0.00 0.00 0.00 0.00 0.00 0.00 0.00 0.00 0.00 0.00 0.00 0.00 0.00 0.00 0.00 0.00 0.00 0.00 0.00 0.00 0.00
MSLP
1009.19 1009.50 1009.81 1010.12 1010.43 1010.77 1011.18 1011.66 1012.24 1012.89 1013.59 1014.28 1014.92 1015.46 1015.88 1016.16 1016.34 1016.45 1016.53 1016.62 1016.77 1016.99 1017.28 1017.63 1018.00 1018.37 1018.71 1019.02 1019.28 1019.51 1019.71 1019.89 1020.05 1020.21 1020.33 1020.40 1020.42 1020.36 1020.24 1020.07 1019.86 1019.66 1019.49
1009.29 1009.55 1009.80 1010.05 1010.31 1010.60 1010.98 1011.46 1012.07 1012.79 1013.57 1014.35 1015.08 1015.68 1016.15 1016.45 1016.61 1016.69 1016.74 1016.81 1016.95 1017.18 1017.49 1017.86 1018.26 1018.64 1018.98 1019.26 1019.48 1019.66 1019.81 1019.96 1020.11 1020.27 1020.41 1020.52 1020.58 1020.56 1020.46 1020.29 1020.07 1019.84 1019.63
1009.32 1009.56 1009.78 1009.99 1010.21 1010.46 1010.81 1011.29 1011.92 1012.68 1013.52 1014.37 1015.16 1015.83 1016.33 1016.65 1016.82 1016.88 1016.91 1016.98 1017.11 1017.35 1017.67 1018.06 1018.47 1018.86 1019.19 1019.44 1019.62 1019.75 1019.86 1019.97 1020.11 1020.26 1020.43 1020.59 1020.69 1020.73 1020.67 1020.53 1020.33 1020.09 1019.86
1009.31 1009.55 1009.77 1009.97 1010.17 1010.40 1010.73 1011.19 1011.81 1012.58 1013.45 1014.34 1015.17 1015.88 1016.41 1016.75 1016.93 1017.01 1017.04 1017.11 1017.25 1017.50 1017.84 1018.25 1018.67 1019.05 1019.37 1019.59 1019.74 1019.82 1019.89 1019.97 1020.09 1020.25 1020.45 1020.64 1020.80 1020.90 1020.90 1020.80 1020.63 1020.41 1020.18
1009.30 1009.56 1009.81 1010.03 1010.22 1010.44 1010.74 1011.17 1011.77 1012.52 1013.38 1014.27 1015.12 1015.84 1016.40 1016.77 1016.97 1017.07 1017.12 1017.21 1017.37 1017.64 1018.00 1018.42 1018.85 1019.24 1019.54 1019.75 1019.87 1019.92 1019.96 1020.02 1020.12 1020.29 1020.50 1020.72 1020.92 1021.07 1021.13 1021.09 1020.96 1020.78 1020.56
1009.32 1009.64 1009.94 1010.19 1010.40 1010.61 1010.89 1011.27 1011.82 1012.51 1013.32 1014.18 1015.01 1015.74 1016.31 1016.70 1016.94 1017.07 1017.16 1017.28 1017.47 1017.77 1018.15 1018.59 1019.03 1019.42 1019.72 1019.92 1020.02 1020.06 1020.08 1020.11 1020.21 1020.36 1020.58 1020.82 1021.05 1021.23 1021.34 1021.34 1021.26 1021.11 1020.92
1009.40 1009.80 1010.17 1010.47 1010.71 1010.92 1011.16 1011.49 1011.96 1012.57 1013.31 1014.11 1014.89 1015.60 1016.17 1016.58 1016.85 1017.02 1017.15 1017.31 1017.54 1017.86 1018.26 1018.71 1019.16 1019.55 1019.86 1020.06 1020.16 1020.20 1020.21 1020.23 1020.31 1020.46 1020.66 1020.90 1021.14 1021.34 1021.47 1021.51 1021.47 1021.36 1021.20
1009.55 1010.03 1010.48 1010.85 1011.12 1011.33 1011.53 1011.80 1012.18 1012.70 1013.34 1014.05 1014.77 1015.43 1015.99 1016.41 1016.71 1016.92 1017.09 1017.28 1017.54 1017.87 1018.29 1018.74 1019.19 1019.59 1019.90 1020.11 1020.23 1020.27 1020.29 1020.31 1020.38 1020.51 1020.69 1020.91 1021.14 1021.33 1021.47 1021.54 1021.53 1021.45 1021.33
1009.73 1010.31 1010.83 1011.26 1011.56 1011.77 1011.95 1012.15 1012.45 1012.87 1013.40 1014.02 1014.66 1015.27 1015.80 1016.22 1016.52 1016.75 1016.95 1017.16 1017.43 1017.77 1018.18 1018.62 1019.07 1019.47 1019.79 1020.02 1020.16 1020.23 1020.26 1020.29 1020.35 1020.46 1020.62 1020.81 1021.01 1021.18 1021.31 1021.38 1021.39 1021.34 1021.25
1009.89 1010.54 1011.14 1011.62 1011.95 1012.17 1012.32 1012.48 1012.70 1013.03 1013.47 1014.00 1014.56 1015.11 1015.59 1015.99 1016.29 1016.52 1016.72 1016.94 1017.19 1017.52 1017.90 1018.33 1018.76 1019.16 1019.49 1019.74 1019.91 1020.01 1020.07 1020.12 1020.18 1020.28 1020.42 1020.57 1020.73 1020.88 1020.99 1021.06 1021.07 1021.05 1020.99
1009.94 1010.67 1011.32 1011.83 1012.19 1012.42 1012.56 1012.69 1012.87 1013.14 1013.51 1013.96 1014.45 1014.94 1015.37 1015.73 1016.01 1016.22 1016.40 1016.59 1016.82 1017.11 1017.46 1017.85 1018.26 1018.65 1018.99 1019.27 1019.47 1019.61 1019.71 1019.79 1019.88 1019.98 1020.09 1020.22 1020.35 1020.46 1020.55 1020.60 1020.62 1020.61 1020.58
1009.85 1010.61 1011.29 1011.82 1012.20 1012.45 1012.60 1012.73 1012.90 1013.15 1013.48 1013.88 1014.32 1014.75 1015.14 1015.46 1015.70 1015.87 1016.02 1016.17 1016.35 1016.59 1016.90 1017.25 1017.63 1018.01 1018.36 1018.67 1018.91 1019.10 1019.25 1019.38 1019.49 1019.60 1019.72 1019.83 1019.93 1020.02 1020.08 1020.11 1020.13 1020.12 1020.10
1009.58 1010.34 1011.01 1011.56 1011.95 1012.22 1012.41 1012.58 1012.78 1013.04 1013.37 1013.76 1014.17 1014.57 1014.91 1015.19 1015.38 1015.52 1015.62 1015.72 1015.86 1016.05 1016.31 1016.63 1016.99 1017.36 1017.72 1018.04 1018.33 1018.57 1018.78 1018.95 1019.11 1019.24 1019.37 1019.48 1019.56 1019.63 1019.67 1019.68 1019.68 1019.67 1019.65
1009.14 1009.87 1010.52 1011.05 1011.46 1011.77 1012.02 1012.25 1012.51 1012.83 1013.19 1013.60 1014.01 1014.39 1014.71 1014.95 1015.11 1015.21 1015.27 1015.34 1015.43 1015.59 1015.81 1016.10 1016.44 1016.80 1017.17 1017.52 1017.84 1018.13 1018.39 1018.61 1018.81 1018.98 1019.12 1019.24 1019.32 1019.37 1019.39 1019.38 1019.36 1019.33 1019.30
1008.60 1009.27 1009.87 1010.39 1010.81 1011.17 1011.49 1011.82 1012.17 1012.57 1013.00 1013.44 1013.87 1014.26 1014.56 1014.79 1014.92 1015.00 1015.04 1015.09 1015.17 1015.30 1015.51 1015.78 1016.10 1016.46 1016.83 1017.19 1017.54 1017.87 1018.16 1018.43 1018.67 1018.87 1019.04 1019.17 1019.25 1019.29 1019.29 1019.26 1019.21 1019.15 1019.08
1008.03 1008.62 1009.17 1009.67 1010.12 1010.54 1010.95 1011.38 1011.84 1012.33 1012.84 1013.35 1013.81 1014.21 1014.52 1014.73 1014.87 1014.94 1014.99 1015.04 1015.12 1015.26 1015.47 1015.74 1016.05 1016.41 1016.77 1017.14 1017.50 1017.84 1018.15 1018.44 1018.71 1018.94 1019.13 1019.27 1019.36 1019.39 1019.38 1019.32 1019.23 1019.12 1019.01
1007.53 1008.05 1008.56 1009.05 1009.53 1010.01 1010.52 1011.05 1011.62 1012.21 1012.80 1013.36 1013.86 1014.27 1014.59 1014.82 1014.97 1015.06 1015.13 1015.22 1015.33 1015.50 1015.73 1016.00 1016.32 1016.67 1017.02 1017.37 1017.71 1018.04 1018.35 1018.64 1018.92 1019.16 1019.36 1019.51 1019.61 1019.63 1019.60 1019.51 1019.38 1019.22 1019.05
1007.20 1007.67 1008.15 1008.65 1009.17 1009.73 1010.32 1010.95 1011.61 1012.27 1012.92 1013.52 1014.04 1014.47 1014.81 1015.05 1015.23 1015.36 1015.48 1015.61 1015.78 1016.00 1016.26 1016.56 1016.88 1017.21 1017.54 1017.85 1018.15 1018.45 1018.72 1018.99 1019.25 1019.48 1019.68 1019.83 1019.92 1019.95 1019.89 1019.77 1019.60 1019.38 1019.15
1007.12 1007.57 1008.06 1008.58 1009.15 1009.77 1010.43 1011.13 1011.85 1012.56 1013.23 1013.84 1014.36 1014.79 1015.14 1015.40 1015.61 1015.79 1015.97 1016.18 1016.41 1016.69 1016.99 1017.31 1017.63 1017.94 1018.23 1018.50 1018.74 1018.98 1019.20 1019.42 1019.64 1019.84 1020.02 1020.16 1020.24 1020.25 1020.18 1020.03 1019.81 1019.54 1019.25
1007.33 1007.80 1008.31 1008.87 1009.48 1010.15 1010.86 1011.60 1012.34 1013.05 1013.71 1014.30 1014.80 1015.21 1015.55 1015.82 1016.07 1016.30 1016.55 1016.83 1017.14 1017.48 1017.82 1018.17 1018.49 1018.77 1019.01 1019.22 1019.39 1019.55 1019.70 1019.86 1020.02 1020.18 1020.33 1020.44 1020.50 1020.48 1020.39 1020.20 1019.95 1019.63 1019.28
1007.84 1008.34 1008.89 1009.50 1010.15 1010.85 1011.57 1012.31 1013.02 1013.70 1014.31 1014.84 1015.30 1015.67 1015.99 1016.28 1016.55 1016.84 1017.16 1017.51 1017.88 1018.28 1018.67 1019.03 1019.34 1019.59 1019.79 1019.93 1020.03 1020.11 1020.18 1020.27 1020.36 1020.47 1020.56 1020.63 1020.66 1020.61 1020.48 1020.27 1019.98 1019.62 1019.22
1008.62 1009.17 1009.76 1010.40 1011.08 1011.77 1012.48 1013.17 1013.83 1014.43 1014.96 1015.42 1015.81 1016.14 1016.44 1016.73 1017.03 1017.36 1017.73 1018.15 1018.58 1019.03 1019.44 1019.82 1020.12 1020.35 1020.50 1020.58 1020.61 1020.61 1020.61 1020.62 1020.65 1020.68 1020.72 1020.74 1020.71 1020.63 1020.46 1020.21 1019.88 1019.49 1019.06
1009.60 1010.20 1010.83 1011.48 1012.15 1012.82 1013.47 1014.09 1014.66 1015.16 1015.60 1015.98 1016.30 1016.58 1016.86 1017.15 1017.48 1017.85 1018.27 1018.73 1019.21 1019.69 1020.13 1020.50 1020.79 1020.99 1021.10 1021.13 1021.11 1021.05 1020.98 1020.92 1020.87 1020.84 1020.81 1020.76 1020.68 1020.54 1020.32 1020.03 1019.67 1019.25 1018.80
1010.70 1011.33 1011.97 1012.62 1013.25 1013.87 1014.44 1014.97 1015.44 1015.84 1016.19 1016.48 1016.74 1016.99 1017.26 1017.56 1017.91 1018.32 1018.78 1019.27 1019.78 1020.27 1020.71 1021.08 1021.35 1021.52 1021.60 1021.59 1021.52 1021.41 1021.29 1021.17 1021.06 1020.96 1020.86 1020.74 1020.58 1020.38 1020.11 1019.78 1019.38 1018.94 1018.47
1011.85 1012.48 1013.11 1013.72 1014.30 1014.84 1015.33 1015.76 1016.13 1016.44 1016.71 1016.94 1017.16 1017.40 1017.67 1017.98 1018.36 1018.80 1019.28 1019.79 1020.31 1020.79 1021.22 1021.57 1021.82 1021.96 1022.01 1021.97 1021.87 1021.73 1021.57 1021.40 1021.23 1021.07 1020.89 1020.69 1020.46 1020.19 1019.86 1019.47 1019.05 1018.59 1018.12
1012.96 1013.57 1014.16 1014.71 1015.22 1015.68 1016.08 1016.42 1016.71 1016.96 1017.17 1017.38 1017.59 1017.83 1018.12 1018.47 1018.87 1019.33 1019.83 1020.34 1020.84 1021.30 1021.70 1022.01 1022.22 1022.34 1022.36 1022.30 1022.18 1022.02 1021.83 1021.62 1021.40 1021.17 1020.92 1020.65 1020.35 1020.00 1019.61 1019.18 1018.72 1018.25 1017.78
Thickness
5740 5736 5732 5729 5726 5723 5721 5721 5721 5720 5719 5718 5717 5715 5715 5717 5718 5720 5721 5721 5721 5720 5720 5719 5718 5718 5717 5716 5715 5714 5712 5711 5711 5709 5707 5708 5710 5710 5710 5710 5710 5710 5710
5736 5733 5730 5728 5725 5723 5721 5719 5718 5718 5718 5718 5717 5717 5716 5715 5716 5716 5717 5718 5719 5719 5718 5718 5717 5716 5715 5714 5714 5713 5710 5709 5709 5708 5704 5701 5703 5707 5709 5709 5709 5710 5709
5736 5733 5730 5728 5726 5723 5722 5720 5718 5717 5717 5717 5715 5714 5712 5712 5711 5712 5713 5715 5716 5717 5717 5716 5716 5715 5715 5714 5713 5713 5711 5708 5707 5708 5705 5700 5697 5701 5705 5707 5708 5709 5709
5738 5734 5730 5728 5726 5724 5722 5719 5717 5715 5714 5715 5715 5714 5711 5709 5710 5711 5711 5713 5714 5714 5715 5715 5714 5714 5713 5713 5712 5712 5711 5710 5707 5706 5706 5705 5704 5701 5700 5704 5707 5708 5708
5740 5735 5732 5730 5727 5725 5722 5718 5715 5713 5713 5713 5713 5713 5710 5710 5709 5709 5709 5710 5710 5711 5712 5712 5712 5712 5712 5711 5711 5711 5711 5710 5708 5707 5705 5703 5702 5702 5701 5699 5702 5705 5707
5740 5737 5733 5730 5726 5724 5721 5717 5714 5712 5711 5711 5711 5711 5710 5709 5707 5707 5707 5707 5707 5708 5709 5710 5710 5710 5710 5710 5709 5709 5709 5709 5708 5707 5706 5704 5703 5701 5700 5698 5698 5699 5703
5741 5736 5732 5729 5725 5722 5719 5717 5714 5712 5711 5710 5709 5710 5710 5709 5708 5708 5707 5706 5706 5706 5707 5709 5709 5709 5708 5708 5707 5707 5707 5707 5706 5706 5705 5704 5703 5702 5700 5698 5696 5696 5698
5742 5738 5734 5731 5727 5723 5720 5718 5715 5713 5712 5711 5710 5710 5710 5709 5708 5708 5707 5707 5707 5708 5708 5708 5707 5707 5707 5706 5705 5705 5704 5704 5704 5704 5703 5702 5702 5701 5700 5698 5695 5693 5693
5743 5739 5736 5733 5729 5725 5722 5719 5716 5714 5713 5711 5710 5709 5709 5709 5708 5708 5708 5707 5707 5707 5707 5707 5706 5706 5705 5704 5703 5702 5702 5701 5701 5701 5700 5699 5699 5698 5698 5697 5696 5692 5689
5744 5741 5738 5735 5731 5727 5723 5720 5718 5716 5714 5712 5711 5710 5709 5709 5708 5707 5706 5706 5706 5707 5706 5705 5705 5704 5703 5702 5701 5700 5699 5698 5698 5697 5697 5696 5696 5695 5695 5694 5692 5691 5689
5744 5742 5739 5736 5733 5729 5724 5720 5718 5716 5714 5712 5711 5710 5709 5709 5708 5707 5706 5706 5706 5706 5705 5704 5703 5702 5701 5700 5698 5697 5696 5695 5695 5694 5693 5693 5692 5691 5690 5689 5688 5686 5685
5746 5743 5739 5736 5732 5729 5725 5722 5719 5717 5715 5713 5711 5710 5709 5708 5707 5706 5705 5705 5705 5705 5704 5703 5702 5701 5700 5698 5696 5695 5694 5692 5691 5691 5689 5689 5688 5687 5686 5685 5683 5682 5681
5745 5742 5738 5735 5732 5729 5726 5723 5720 5717 5715 5713 5711 5709 5707 5706 5706 5705 5705 5704 5704 5703 5702 5701 5700 5699 5698 5696 5694 5693 5691 5690 5689 5687 5685 5684 5683 5682 5681 5680 5679 5678 5677
5744 5740 5736 5734 5732 5730 5727 5724 5720 5718 5715 5712 5710 5707 5706 5705 5704 5703 5703 5702 5702 5700 5699 5698 5697 5696 5694 5693 5691 5689 5687 5686 5684 5683 5681 5679 5677 5676 5675 5674 5673 5672 5670
5742 5739 5736 5733 5731 5728 5726 5724 5721 5718 5714 5711 5707 5705 5704 5703 5702 5701 5700 5699 5698 5697 5695 5693 5691 5690 5689 5688 5687 5685 5683 5680 5678 5676 5674 5672 5671 5670 5668 5667 5665 5663 5661
5740 5738 5735 5733 5730 5727 5725 5722 5720 5717 5713 5709 5706 5704 5702 5700 5699 5698 5696 5695 5694 5692 5690 5688 5687 5685 5684 5683 5681 5679 5676 5673 5671 5668 5666 5663 5661 5660 5659 5658 5656 5654 5652
5737 5734 5732 5730 5728 5725 5723 5719 5716 5713 5710 5706 5702 5700 5698 5696 5694 5692 5691 5689 5687 5686 5683 5681 5679 5676 5674 5674 5672 5670 5666 5663 5660 5658 5655 5652 5650 5648 5646 5645 5644 5642 5641
5733 5730 5728 5725 5722 5720 5717 5714 5711 5707 5703 5699 5696 5694 5692 5689 5687 5686 5684 5681 5678 5676 5673 5671 5668 5666 5663 5663 5661 5658 5654 5650 5647 5644 5641 5638 5635 5634 5633 5632 5631 5629 5627
5724 5722 5720 5718 5715 5712 5709 5706 5701 5697 5694 5691 5688 5687 5685 5682 5679 5676 5674 5671 5668 5665 5661 5658 5656 5653 5650 5649 5647 5645 5641 5636 5632 5629 5627 5625 5622 5620 5618 5617 5616 5614 5614
5713 5710 5709 5708 5704 5701 5700 5697 5691 5687 5683 5681 5679 5677 5675 5672 5668 5665 5662 5659 5656 5652 5649 5645 5642 5639 5636 5634 5633 5630 5626 5622 5617 5613 5611 5609 5607 5605 5604 5602 5600 5600 5600
5700 5698 5697 5693 5691 5690 5689 5684 5679 5674 5672 5671 5669 5666 5664 5661 5657 5653 5650 5647 5643 5638 5634 5630 5626 5624 5621 5619 5617 5615 5612 5607 5603 5599 5595 5593 5591 5590 5588 5586 5585 5584 5585
5685 5684 5683 5679 5676 5677 5677 5672 5665 5662 5661 5660 5657 5654 5651 5649 5645 5641 5636 5633 5629 5625 5619 5615 5611 5607 5605 5603 5601 5599 5596 5592 5589 5585 5581 5578 5576 5575 5573 5571 5570 5569 5569
5672 5669 5668 5665 5662 5661 5662 5658 5652 5651 5649 5647 5644 5641 5638 5634 5631 5628 5623 5619 5614 5610 5605 5601 5596 5592 5589 5587 5584 5582 5579 5576 5573 5570 5567 5564 5561 5559 5557 5555 5554 5553 5552
5659 5657 5655 5652 5648 5646 5645 5643 5641 5640 5638 5634 5630 5627 5623 5619 5615 5612 5608 5604 5599 5595 5591 5587 5581 5577 5574 5570 5568 5565 5562 5559 5556 5553 5550 5547 5544 5541 5539 5538 5536 5534 5533
5645 5644 5642 5638 5634 5633 5631 5631 5630 5629 5625 5621 5617 5612 5609 5604 5599 5594 5589 5587 5582 5580 5576 5571 5566 5562 5558 5553 5549 5547 5545 5542 5539 5535 5532 5529 5526 5524 5522 5519 5517 5515 5513
5632 5629 5627 5625 5622 5621 5619 5617 5617 5616 5613 5608 5603 5598 5594 5590 5585 5580 5573 5569 5566 5562 5558 5554 5549 5544 5539 5536 5532 5529 5526 5523 5520 5516 5513 5510 5507 5504 5503 5501 5499 5496 5494